Lid_Strength_Index
3 3 3 3 3 3 2 2 2 2 2 3 3 3 3 3 3 5 10 5 4 -2 -1 1 3 5 4 6 4 5 11 13 12 11 10 7 8 6 4 6 5 5 7 7 7
3 3 3 3 3 3 3 2 2 2 3 3 3 3 3 3 5 7 2 -1 -3 -2 6 7 8 6 8 7 5 8 11 11 8 8 9 7 8 7 7 7 6 9 7 7 6
4 3 4 3 3 4 3 3 2 2 2 3 3 3 3 3 6 6 -2 -3 -2 -1 7 6 7 6 8 7 6 8 10 8 7 6 6 7 8 6 7 9 7 9 8 7 7
3 3 3 4 4 4 4 3 3 2 2 3 3 3 3 5 9 5 -3 -2 -2 3 6 7 6 7 8 9 6 9 8 7 7 6 6 8 6 8 7 7 6 7 7 7 8
3 3 3 4 4 4 4 4 4 3 2 3 3 3 5 8 6 1 -3 -2 3 7 8 8 7 7 8 8 7 9 8 7 6 6 6 6 7 7 7 5 7 6 7 8 8
4 3 3 3 4 4 5 5 4 4 3 3 3 3 6 9 4 1 3 4 6 7 7 8 6 6 7 7 8 7 7 7 7 7 6 7 8 7 6 6 7 7 7 7 6
3 3 3 3 4 4 5 5 5 4 3 2 2 3 7 6 4 3 5 7 6 6 6 4 4 5 6 7 6 7 9 8 8 7 8 6 10 9 5 7 8 7 7 7 6
3 3 3 3 4 4 5 5 5 4 3 2 2 5 9 5 4 5 5 4 4 6 7 6 3 5 6 6 7 9 9 12 9 7 7 8 13 8 5 7 8 7 7 6 6
3 3 3 3 4 4 5 5 4 3 3 3 5 7 9 3 5 4 4 5 6 6 7 1 4 6 7 10 11 10 13 13 11 7 8 9 11 7 6 6 8 7 7 7 7
3 3 3 4 4 4 6 5 3 3 4 3 3 9 7 7 5 5 4 5 5 6 7 5 7 9 10 11 13 12 13 12 12 9 9 10 10 8 7 6 7 7 7 7 7
3 3 4 4 4 5 6 8 9 10 9 10 8 7 6 5 4 5 5 5 6 7 11 9 11 12 11 9 9 9 11 11 10 8 9 10 10 9 7 7 7 7 7 7 7
3 3 3 4 4 4 7 8 8 8 11 8 7 7 6 5 6 5 5 7 7 10 9 10 12 9 8 9 9 9 11 11 9 8 9 9 10 9 8 8 7 7 6 7 7
3 4 3 4 4 6 7 6 7 9 12 9 7 7 7 6 7 6 5 7 8 9 10 11 10 8 8 8 9 10 11 11 10 9 9 10 11 11 8 7 6 6 5 5 7
4 4 4 4 7 8 7 6 6 7 12 10 9 7 7 6 7 5 5 7 8 10 9 10 9 9 9 10 9 12 9 9 10 11 14 10 15 12 10 10 8 7 6 6 6
4 4 4 4 8 9 6 6 6 6 15 8 9 7 8 7 7 6 5 6 9 9 9 10 10 10 10 10 8 10 8 9 10 12 13 12 14 12 10 11 9 7 6 5 5
4 4 4 7 9 7 6 7 7 11 14 10 9 10 10 8 7 6 6 6 6 9 9 10 8 8 9 7 7 7 9 11 11 13 17 14 14 14 12 10 9 7 6 5 5
4 4 6 6 9 8 7 8 12 14 8 10 11 10 10 9 8 8 9 9 10 12 12 10 10 9 7 9 8 9 12 15 16 17 17 13 15 13 9 8 8 8 6 6 5
5 5 7 6 8 7 8 10 15 9 9 7 10 10 10 9 9 9 10 11 9 10 12 13 13 9 7 9 10 11 12 15 19 19 16 13 16 12 8 7 6 6 6 6 6
6 10 9 7 6 8 10 13 12 9 7 8 9 11 11 10 10 10 10 10 9 9 11 12 12 8 7 7 8 10 12 10 13 14 16 14 12 9 9 8 7 7 6 6 6
9 10 9 7 6 7 12 13 10 6 7 7 10 9 11 11 11 11 11 9 9 8 8 10 13 9 7 7 7 10 9 13 14 18 19 16 15 14 11 10 9 8 8 7 6
10 10 8 6 6 9 15 14 10 7 7 8 9 10 9 9 11 12 11 9 7 8 8 9 11 11 9 10 10 10 12 12 12 14 17 19 15 11 10 9 9 8 7 7 6
9 11 5 7 10 12 13 10 9 7 7 6 7 8 8 8 9 9 9 8 6 7 9 9 12 13 11 9 8 10 11 11 14 15 15 15 15 9 9 9 8 8 7 6 6
11 9 4 7 12 13 11 8 7 8 7 8 8 7 7 10 11 9 7 6 5 6 9 9 12 14 12 10 10 11 10 10 12 13 15 16 14 8 8 8 8 8 7 6 6
10 10 7 8 10 11 11 10 8 6 7 7 7 7 8 9 8 10 9 6 5 6 6 7 11 13 14 12 11 11 10 10 11 14 14 14 12 10 10 9 8 8 7 6 6
10 11 8 10 9 10 10 10 9 8 7 8 9 7 9 11 10 10 8 8 6 5 7 9 12 11 10 9 10 10 10 10 11 11 13 12 12 11 9 9 8 7 7 6 6
11 9 9 8 8 9 11 11 9 8 8 8 9 8 8 11 10 11 9 10 10 7 9 9 12 12 12 10 10 11 9 9 10 10 11 11 12 8 8 7 7 7 6 7 6
8 6 6 8 9 10 10 10 8 7 7 6 6 8 9 8 7 7 7 9 9 10 10 10 11 12 14 11 11 12 11 10 10 10 10 13 10 8 8 8 7 7 7 6 6